Tracking 29932 objects as of 3-Dec-2024
HD Live streaming from Space Station
objects crossing your sky now

INSAT 2R (ARABSAT 1C)

Track INSAT 2R (ARABSAT 1C) now!
INSAT 2R (ARABSAT 1C) is classified as:


NORAD ID: 21894
Int'l Code: 1992-010B
Perigee: 36,111.0 km
Apogee: 36,378.8 km
Inclination: 13.9 °
Period: 1,459.2 minutes
Semi major axis: 42615 km
RCS: 2.2387 m2 (large)
Launch date: February 26, 1992
Source: India (IND)
Launch site: FRENCH GUIANA (FRGUI)
Your satellite tracking list
Your tracking list is empty




NASA's NSSDC Master Catalog

Two Line Element Set (TLE):
1 21894U 92010B   24338.31976619 -.00000011  00000-0  00000-0 0  9991
2 21894  13.9275  15.6762 0031418 258.3286 131.0895  0.98683601118717
Source of the keplerian elements: AFSPC